Carbondale, IL

9:02 AM CST on November 21, 2019 (GMT -0600)
Southern Illinois

Weather History for KMDH - August, 2019

Change the Weather History Date:

Wednesday, August 28, 2019

  Actual Average Record
Temperature  
Mean Temperature 71 °F -  
Max Temperature 82 °F 87 °F 106 °F (1936)
Min Temperature 60 °F 62 °F 33 °F (1996)
Cooling Degree Days 6    
Growing Degree Days 21 (Base 50)    
Moisture  
Dew Point 58 °F    
Average Humidity 70    
Maximum Humidity 97    
Minimum Humidity 35    
Precipitation  
Precipitation 0.00 in - - ()
Sea Level Pressure  
Sea Level Pressure 30.06 in    
Wind  
Wind Speed 4 mph (WNW)    
Max Wind Speed 12 mph    
Max Gust Speed 21 mph    
Visibility 10 miles    
Events      
Averages and records for this station are not official NWS values.
T = Trace of Precipitation, MM = Missing Value Source: NWS Daily Summary

Daily Weather History Graph

Daily Weather History Graph

Search for Another Location

Airport or City:

Astronomy

Aug. 28, 2019 Rise Set
Actual Time 6:23 AM CDT 7:32 PM CDT
Civil Twilight 5:56 AM CDT 7:59 PM CDT
Nautical Twilight 5:24 AM CDT 8:31 PM CDT
Astronomical Twilight 4:50 AM CDT 9:05 PM CDT
Moon 3:59 AM CDT (8/28) 6:41 PM CDT (8/28)
Length of Visible Light 14h 03m
Length of Day
13h 08m
Waning Crescent, 4% of the Moon is Illuminated
Aug 28
Waning Crescent
Aug 30
New
Sep 5
First Quarter
Sep 13
Full
Sep 21
Last Quarter

Hourly Weather History & Observations

Time (CDT) Temp. Heat Index Dew Point Humidity Pressure Visibility Wind Dir Wind Speed Gust Speed Precip Events Conditions
12:52 AM 64.0 °F - 63.0 °F 96% 30.01 in 10.0 mi Calm Calm - N/A   Clear
1:52 AM 63.0 °F - 62.1 °F 97% 30.00 in 10.0 mi West 3.5 mph - N/A   Clear
2:52 AM 64.0 °F - 63.0 °F 96% 30.01 in 10.0 mi West 3.5 mph - N/A   Clear
3:52 AM 66.0 °F - 63.0 °F 90% 30.01 in 10.0 mi West 3.5 mph - N/A   Clear
4:52 AM 64.9 °F - 61.0 °F 87% 30.03 in 10.0 mi WNW 4.6 mph - N/A   Clear
5:52 AM 63.0 °F - 60.1 °F 90% 30.05 in 10.0 mi West 4.6 mph - N/A   Clear
6:52 AM 62.1 °F - 60.1 °F 93% 30.06 in 10.0 mi WNW 4.6 mph - N/A   Clear
7:52 AM 66.9 °F - 62.1 °F 84% 30.08 in 10.0 mi NW 5.8 mph - N/A   Clear
8:52 AM 71.1 °F - 62.1 °F 73% 30.09 in 10.0 mi NW 6.9 mph - N/A   Clear
9:52 AM 73.9 °F - 60.1 °F 62% 30.10 in 10.0 mi NW 6.9 mph - N/A   Clear
10:52 AM 77.0 °F - 55.9 °F 48% 30.11 in 10.0 mi North 8.1 mph - N/A   Clear
11:52 AM 78.1 °F - 52.0 °F 40% 30.11 in 10.0 mi NW 11.5 mph - N/A   Clear
12:52 PM 80.1 °F - 52.0 °F 38% 30.10 in 10.0 mi WNW 9.2 mph - N/A   Clear
1:52 PM 81.0 °F - 52.0 °F 36% 30.09 in 10.0 mi NNW 4.6 mph - N/A   Clear
2:52 PM 82.0 °F - 52.0 °F 35% 30.08 in 10.0 mi NW 9.2 mph 20.7 mph N/A   Clear
3:52 PM 82.0 °F 81.2 °F 53.1 °F 37% 30.06 in 10.0 mi NW 8.1 mph - N/A   Clear
4:52 PM 82.0 °F - 52.0 °F 35% 30.05 in 10.0 mi WNW 8.1 mph - N/A   Clear
5:52 PM 81.0 °F 80.5 °F 54.0 °F 39% 30.05 in 10.0 mi WNW 5.8 mph - N/A   Clear
6:52 PM 75.9 °F - 57.9 °F 54% 30.04 in 10.0 mi WNW 3.5 mph - N/A   Clear
7:52 PM 68.0 °F - 63.0 °F 84% 30.04 in 10.0 mi Calm Calm - N/A   Clear
8:52 PM 63.0 °F - 59.0 °F 87% 30.05 in 10.0 mi SW 3.5 mph - N/A   Clear
9:52 PM 60.1 °F - 57.9 °F 93% 30.06 in 10.0 mi South 3.5 mph - N/A   Clear
10:52 PM 61.0 °F - 57.9 °F 90% 30.06 in 10.0 mi Calm Calm - N/A   Clear
11:52 PM 60.1 °F - 57.9 °F 93% 30.06 in 10.0 mi Calm Calm - N/A   Clear